Fort Morgan, CO

11:38 AM MDT on July 22, 2017 (GMT -0600)
Fort Morgan

Weather History for KFMM - February, 2014

Change the Weather History Date:

Saturday, February 22, 2014

  Actual Average (KAKO) Record (KAKO)
Temperature  
Mean Temperature 35 °F -  
Max Temperature 48 °F 46 °F 72 °F (1958)
Min Temperature 22 °F 22 °F 0 °F (1955)
Degree Days  
Heating Degree Days 30    
Moisture  
Dew Point 24 °F    
Average Humidity 80    
Maximum Humidity 96    
Minimum Humidity 30    
Precipitation  
Precipitation 0.00 in - - ()
Sea Level Pressure  
Sea Level Pressure 29.89 in    
Wind  
Wind Speed 6 mph (ENE)    
Max Wind Speed 22 mph    
Max Gust Speed 29 mph    
Visibility 8 miles    
Events Fog , Snow    
Averages and records for this station are not official NWS values.
T = Trace of Precipitation, MM = Missing Value Source: NWS Daily Summary

Daily Weather History Graph

Daily Weather History Graph

Search for Another Location

Airport or City:

Trip Planner

Search our weather history database for the weather conditions in past years. The results will help you decide how hot, cold, wet, or windy it might be!

Date:

Astronomy

Feb. 22, 2014 Rise Set
Actual Time 6:38 AM MST 5:38 PM MST
Civil Twilight 6:11 AM MST 6:06 PM MST
Nautical Twilight 5:39 AM MST 6:38 PM MST
Astronomical Twilight 5:08 AM MST 7:09 PM MST
Moon 12:37 AM MST 10:51 AM MST
Length of Visible Light 11h 55m
Length of Day
10h 59m
Waning Gibbous, 49% of the Moon is Illuminated
Feb 22
Waning Gibbous
Mar 1
New
Mar 8
First Quarter
Mar 16
Full
Mar 23
Last Quarter

Hourly Weather History & Observations

Time (MST) Temp. Windchill Dew Point Humidity Pressure Visibility Wind Dir Wind Speed Gust Speed Precip Events Conditions
12:15 AM 28.4 °F 20.4 °F 24.6 °F 86% 29.89 in 10.0 mi NNE 8.1 mph - N/A   Clear
12:35 AM 27.9 °F 17.8 °F 24.4 °F 87% 29.89 in 10.0 mi NE 11.5 mph - N/A   Scattered Clouds
12:55 AM 26.6 °F 17.5 °F 23.9 °F 90% 29.89 in 10.0 mi NE 9.2 mph - N/A   Clear
1:15 AM 25.9 °F 17.4 °F 23.2 °F 90% 29.89 in 10.0 mi NE 8.1 mph - N/A   Scattered Clouds
1:35 AM 25.7 °F 19.0 °F 23.0 °F 89% 29.89 in 10.0 mi East 5.8 mph - N/A   Scattered Clouds
1:55 AM 23.7 °F 16.6 °F 21.7 °F 92% 29.89 in 10.0 mi ENE 5.8 mph - N/A   Clear
2:15 AM 23.7 °F 17.8 °F 21.9 °F 93% 29.89 in 10.0 mi East 4.6 mph - N/A   Clear
2:35 AM 23.5 °F 19.1 °F 21.7 °F 93% 29.89 in 10.0 mi East 3.5 mph - N/A   Clear
2:55 AM 23.9 °F - 22.1 °F 93% 29.89 in 10.0 mi North - - N/A   Clear
3:15 AM 24.8 °F 20.5 °F 23.2 °F 94% 29.89 in 10.0 mi SE 3.5 mph - N/A   Clear
3:35 AM 23.4 °F 18.9 °F 21.6 °F 93% 29.89 in 10.0 mi SSE 3.5 mph - N/A   Scattered Clouds
3:55 AM 23.0 °F - 21.6 °F 94% 29.89 in 10.0 mi Calm Calm - N/A   Mostly Cloudy
4:15 AM 23.0 °F - 21.9 °F 96% 29.89 in 10.0 mi Calm Calm - N/A   Clear
4:35 AM 23.9 °F - 22.8 °F 96% 29.89 in 10.0 mi Calm Calm - N/A   Clear
4:55 AM 24.3 °F - 23.0 °F 95% 29.88 in 10.0 mi Calm Calm - N/A   Clear
5:15 AM 23.5 °F - 22.3 °F 95% 29.89 in 10.0 mi Calm Calm - N/A   Clear
5:35 AM 23.0 °F - 21.7 °F 95% 29.88 in 10.0 mi Calm Calm - N/A   Clear
5:55 AM 23.0 °F - 22.1 °F 96% 29.88 in 10.0 mi Calm Calm - N/A   Clear
6:15 AM 22.8 °F - 21.7 °F 96% 29.88 in 10.0 mi Calm Calm - N/A   Clear
6:35 AM 22.1 °F 15.9 °F 21.2 °F 96% 29.87 in 10.0 mi SSE 4.6 mph - N/A   Scattered Clouds
6:55 AM 22.5 °F 17.8 °F 21.6 °F 96% 29.88 in 10.0 mi SSE 3.5 mph - N/A   Overcast
7:15 AM 22.6 °F - 21.7 °F 96% 29.88 in 1.5 mi Calm Calm - N/A   Overcast
7:35 AM 23.2 °F - 22.3 °F 96% 29.88 in 7.0 mi Calm Calm - N/A   Mostly Cloudy
7:55 AM 24.3 °F - 23.0 °F 95% 29.88 in 10.0 mi Calm Calm - N/A   Scattered Clouds
8:15 AM 25.2 °F 20.9 °F 23.7 °F 94% 29.89 in 10.0 mi East 3.5 mph - N/A   Clear
8:35 AM 25.7 °F 21.5 °F 24.4 °F 95% 29.89 in 1.0 mi ENE 3.5 mph - N/A   Overcast
8:55 AM 26.6 °F 22.6 °F 24.8 °F 93% 29.89 in 3.0 mi ESE 3.5 mph - N/A   Overcast
9:15 AM 26.1 °F 19.4 °F 24.8 °F 95% 29.89 in 0.2 mi SE 5.8 mph - N/A Fog Light Freezing Fog
9:35 AM 27.1 °F - 25.7 °F 94% 29.89 in 0.5 mi Calm Calm - N/A Fog Light Freezing Fog
9:55 AM 29.3 °F 25.6 °F 26.1 °F 88% 29.89 in 7.0 mi East 3.5 mph - N/A   Overcast
10:15 AM 32.0 °F 27.5 °F 26.6 °F 80% 29.88 in 10.0 mi East 4.6 mph - N/A   Scattered Clouds
10:35 AM 34.7 °F 30.6 °F 25.9 °F 70% 29.88 in 10.0 mi ESE 4.6 mph - N/A   Mostly Cloudy
10:55 AM 36.9 °F 32.2 °F 25.5 °F 64% 29.87 in 10.0 mi SE 5.8 mph - N/A   Overcast
11:15 AM 38.8 °F 33.8 °F 25.7 °F 59% 29.86 in 10.0 mi SE 6.9 mph - N/A   Mostly Cloudy
11:35 AM 41.5 °F 37.8 °F 23.7 °F 49% 29.85 in 10.0 mi East 5.8 mph - N/A   Scattered Clouds
11:55 AM 42.3 °F 40.5 °F 23.2 °F 47% 29.84 in 10.0 mi SE 3.5 mph - N/A   Clear
12:15 PM 43.9 °F 41.3 °F 23.2 °F 44% 29.83 in 10.0 mi East 4.6 mph - N/A   Clear
12:35 PM 44.6 °F 43.1 °F 21.0 °F 39% 29.82 in 10.0 mi SSE 3.5 mph - N/A   Clear
12:55 PM 45.9 °F 43.6 °F 19.6 °F 35% 29.81 in 10.0 mi ESE 4.6 mph - N/A   Clear
1:15 PM 46.4 °F 45.2 °F 19.6 °F 34% 29.81 in 10.0 mi East 3.5 mph - N/A   Clear
1:35 PM 46.0 °F 43.9 °F 18.5 °F 33% 29.80 in 10.0 mi East 4.6 mph - N/A   Clear
1:55 PM 47.5 °F - 19.4 °F 33% 29.79 in 10.0 mi SE 4.6 mph - N/A   Clear
2:15 PM 48.2 °F - 18.9 °F 31% 29.79 in 10.0 mi ESE 5.8 mph - N/A   Clear
2:35 PM 47.8 °F - 17.6 °F 30% 29.79 in 10.0 mi SE 3.5 mph - N/A   Clear
2:55 PM 46.4 °F - 17.4 °F 31% 29.79 in 10.0 mi Calm Calm - N/A   Scattered Clouds
3:15 PM 48.6 °F - 18.0 °F 30% 29.78 in 10.0 mi Calm Calm - N/A   Mostly Cloudy
3:35 PM 48.2 °F - 20.5 °F 33% 29.79 in 10.0 mi NE 17.3 mph 25.3 mph N/A   Mostly Cloudy
3:55 PM 39.2 °F 29.8 °F 23.9 °F 54% 29.81 in 10.0 mi NNE 18.4 mph - N/A   Overcast
4:15 PM 37.0 °F 26.4 °F 24.4 °F 60% 29.82 in 10.0 mi NNE 20.7 mph 28.8 mph N/A   Overcast
4:35 PM 33.3 °F 21.2 °F 25.7 °F 74% 29.82 in 10.0 mi NNE 21.9 mph 28.8 mph N/A   Overcast
4:55 PM 32.0 °F 19.8 °F 26.4 °F 80% 29.85 in 10.0 mi NNE 20.7 mph 26.5 mph N/A   Overcast
5:15 PM 31.3 °F 18.5 °F 27.0 °F 84% 29.84 in 10.0 mi NE 21.9 mph 28.8 mph N/A   Overcast
5:35 PM 31.5 °F 19.4 °F 27.0 °F 83% 29.87 in 10.0 mi NE 19.6 mph 23.0 mph N/A   Overcast
5:55 PM 30.9 °F 19.1 °F 27.5 °F 87% 29.88 in 10.0 mi NE 18.4 mph 25.3 mph N/A   Overcast
6:15 PM 30.2 °F 19.3 °F 28.2 °F 92% 29.90 in 7.0 mi NE 15.0 mph 20.7 mph N/A Snow Light Snow
6:35 PM 30.0 °F 19.5 °F 28.2 °F 93% 29.90 in 10.0 mi NE 13.8 mph - N/A Snow Light Snow
6:55 PM 29.5 °F 19.9 °F 28.2 °F 95% 29.92 in 7.0 mi NE 11.5 mph - N/A Snow Light Snow
7:15 PM 29.5 °F 19.9 °F 28.2 °F 95% 29.93 in 10.0 mi NE 11.5 mph - N/A   Overcast
7:35 PM 29.3 °F 19.1 °F 28.0 °F 95% 29.94 in 10.0 mi NE 12.7 mph - N/A Snow Light Snow
8:15 PM 29.3 °F 20.2 °F 28.4 °F 96% 29.96 in 2.0 mi ENE 10.4 mph - N/A Snow Light Snow
8:35 PM 29.1 °F 20.6 °F 28.0 °F 96% 29.98 in 2.5 mi NE 9.2 mph - N/A Snow Light Snow
8:55 PM 28.4 °F 20.4 °F 27.5 °F 96% 29.99 in 3.0 mi NE 8.1 mph - N/A Snow Light Snow
9:15 PM 28.4 °F 19.7 °F 27.3 °F 96% 29.99 in 1.5 mi ENE 9.2 mph - N/A Snow Light Snow
9:35 PM 28.2 °F 21.0 °F 27.1 °F 96% 30.00 in 2.0 mi NE 6.9 mph - N/A Snow Light Snow
9:55 PM 28.0 °F 20.0 °F 27.1 °F 96% 30.01 in 4.0 mi NE 8.1 mph - N/A Snow Light Snow
10:15 PM 28.0 °F 20.8 °F 27.1 °F 96% 30.01 in 2.0 mi ENE 6.9 mph - N/A Snow Light Snow
10:35 PM 28.0 °F 22.8 °F 27.0 °F 96% 30.02 in 2.0 mi NE 4.6 mph - N/A Snow Light Snow
10:55 PM 27.9 °F 22.6 °F 27.0 °F 96% 30.02 in 1.8 mi NE 4.6 mph - N/A Snow Light Snow
11:15 PM 27.9 °F 24.0 °F 27.0 °F 96% 30.01 in 1.8 mi NE 3.5 mph - N/A   Overcast
11:35 PM 27.7 °F 22.4 °F 26.8 °F 96% 30.01 in 2.0 mi NE 4.6 mph - N/A Snow Light Snow
11:55 PM 27.7 °F - 26.8 °F 96% 30.01 in 4.0 mi North - - N/A Snow Light Snow